Terminal Aerodrome Forecast
Issued by NWS Wilmington, OH

Current Version | Previous Version | Graphics & Text | Print | Product List | Glossary On
Versions: 1 2 3 4 5 6 7 8 9 10 11 12 13 14 15 16 17 18 19 20 21 22 23 24
000
FTUS41 KILN 201913 AAA
TAFDAY
TAF AMD
KDAY 201913Z 2019/2118 22015G29KT 5SM -SHRA VCTS SCT050CB BKN090
      TEMPO 2019/2022 2SM TSRA OVC025CB
     FM202200 23013G24KT 5SM -SHRA BKN050
      TEMPO 2022/2102 2SM TSRA OVC025CB
     FM210200 24013G18KT 5SM -SHRA VCTS OVC025CB
     FM210400 28011KT P6SM VCSH BKN025
     FM210600 30010KT P6SM BKN025
     FM211500 31009KT P6SM BKN040=

USA.gov is the U.S. government's official web portal to all federal, state and local government web resources and services.